Location: Newark
(0.5300°S, 127.4800°E)
Time: 10:03:43
(UTC+00:00)

A-11 Canister half - All Passes

Search period start: 16 September 2019 00:00
Search period end: 26 September 2019 00:00
Orbit: 1514 x 1686 km, 47.2° (Epoch: 15 September)

Date Brightness Start Highest point End Pass type
(mag) Time Alt. Az. Time Alt. Az. Time Alt. Az.
16 Sep - 00:28:30 10° WSW 00:37:37 49° NW 00:46:29 10° NNE daylight
16 Sep - 09:14:30 10° NNE 09:18:05 12° NE 09:21:42 10° ENE daylight
16 Sep - 11:13:40 10° NNW 11:23:18 72° NE 11:33:19 10° SE visible
16 Sep - 13:20:46 10° W 13:28:23 25° SW 13:36:11 10° S visible
16 Sep - 22:01:28 10° SSW 22:09:55 32° SE 22:18:02 10° ENE daylight
17 Sep - 00:05:25 10° SW 00:14:43 53° NW 00:23:43 10° NNE daylight
17 Sep - 08:52:59 10° NNE 08:55:04 11° NE 08:57:10 10° ENE daylight
17 Sep - 10:50:50 10° NNW 11:00:22 66° NE 11:10:17 10° SE visible
17 Sep - 12:57:29 10° WNW 13:05:23 27° SW 13:13:31 10° S visible
17 Sep - 21:38:45 10° S 21:46:57 30° SE 21:54:51 10° ENE daylight
17 Sep - 23:42:21 10° SW 23:51:48 58° NW 00:00:56 10° NNE daylight
18 Sep - 10:28:00 10° NNW 10:37:26 61° NE 10:47:14 10° SE visible
18 Sep - 12:34:14 10° WNW 12:42:24 30° SW 12:50:48 10° S visible
18 Sep - 21:16:03 10° S 21:23:59 27° SE 21:31:38 10° ENE daylight
18 Sep - 23:19:19 10° SW 23:28:53 64° NW 23:38:08 10° NNE daylight
19 Sep - 10:05:12 10° NNW 10:14:31 56° NE 10:24:10 10° SE visible
19 Sep - 12:11:02 10° WNW 12:19:25 32° SW 12:28:05 10° SSE visible
19 Sep - 20:53:24 10° S 21:01:01 25° SE 21:08:22 10° E visible
19 Sep - 22:56:18 10° SW 23:05:59 70° NW 23:15:18 10° NNE daylight
20 Sep - 01:08:32 10° WNW 01:11:09 11° NW 01:13:46 10° NNW daylight
20 Sep - 09:42:25 10° NNW 09:51:35 51° NE 10:01:06 10° ESE visible
20 Sep - 11:47:52 10° WNW 11:56:26 35° SW 12:05:20 10° SSE visible
20 Sep - 20:30:45 10° S 20:38:02 23° SE 20:45:04 10° E visible
20 Sep - 22:33:18 10° SW 22:43:04 76° NW 22:52:28 10° NE daylight
21 Sep - 00:44:17 10° WNW 00:48:09 13° NW 00:52:00 10° NNW daylight
21 Sep - 09:19:39 10° NNW 09:28:40 47° NE 09:37:59 10° ESE daylight
21 Sep - 11:24:43 10° WNW 11:33:29 39° SW 11:42:34 10° SSE visible
21 Sep - 20:08:09 10° S 20:15:01 21° SE 20:21:41 10° E visible
21 Sep - 22:10:19 10° SW 22:20:09 82° NW 22:29:36 10° NE daylight
22 Sep - 00:20:24 10° WNW 00:25:10 15° NW 00:29:53 10° NNW daylight
22 Sep - 08:56:55 10° NNW 09:05:44 43° NE 09:14:51 10° ESE daylight
22 Sep - 11:01:37 10° WNW 11:10:31 42° SW 11:19:47 10° SSE visible
22 Sep - 19:45:36 10° S 19:52:01 19° SE 19:58:15 10° E visible
22 Sep - 21:47:20 10° SW 21:57:14 88° NW 22:06:44 10° NE daylight
22 Sep - 23:56:41 10° W 00:02:11 17° NW 00:07:37 10° N daylight
23 Sep - 08:34:12 10° NNW 08:42:48 39° NE 08:51:41 10° ESE daylight
23 Sep - 10:38:31 10° WNW 10:47:34 46° SW 10:56:59 10° SSE visible
23 Sep - 19:23:07 10° S 19:29:00 17° SE 19:34:45 10° E visible
23 Sep - 21:24:23 10° SW 21:34:19 86° SE 21:43:50 10° NE daylight
23 Sep - 23:33:06 10° W 23:39:13 18° NW 23:45:14 10° N daylight
24 Sep - 08:11:30 10° NNW 08:19:52 35° NE 08:28:30 10° ESE daylight
24 Sep - 10:15:29 10° WNW 10:24:37 50° SW 10:34:09 10° SSE visible
24 Sep - 19:00:42 10° SSE 19:05:58 15° SE 19:11:08 10° ESE visible
24 Sep - 21:01:28 10° SW 21:11:24 80° SE 21:20:56 10° NE daylight
24 Sep - 23:09:36 10° W 23:16:14 21° NW 23:22:47 10° N daylight
25 Sep - 07:48:50 10° N 07:56:56 32° NE 08:05:16 10° ESE daylight
25 Sep - 09:52:27 10° NW 10:01:41 54° SW 10:11:19 10° SSE visible
25 Sep - 18:38:24 10° SSE 18:42:56 14° SE 18:47:23 10° ESE visible
25 Sep - 20:38:32 10° SSW 20:48:28 74° SE 20:58:00 10° NE visible
25 Sep - 22:46:10 10° W 22:53:16 23° NW 23:00:16 10° N daylight
